{"data":{"norad_id":63969,"intl_designator":"2025-099T","name":"STARLINK-34112","alt_names":[],"object_type":"PAYLOAD","status":"ACTIVE","operator":null,"country":"US","launch_date":"2025-05-13","launch_site_code":"AFETR","launch_vehicle":null,"mission":null,"orbit_class":"UNKNOWN","rcs_meters":null,"size_class":null,"mass_kg":null,"dimensions":null,"purposes":["comms"],"wikipedia_slug":null,"has_3d_model":false,"image_url":null,"decayed_at":null,"tle_current":{"epoch":"2026-05-24T08:40:32.355840Z","epoch_age_seconds":120441,"freshness":"FRESH","line1":"1 63969U 25099T   26144.36148560  .00009147  00000+0  34146-3 0  9999","line2":"2 63969  43.0016 108.4855 0001212 272.8661  87.2052 15.27583888 58910","mean_motion":15.27583888,"eccentricity":0.0001212,"inclination_deg":43.0016,"raan_deg":108.4855,"arg_perigee_deg":272.8661,"mean_anomaly_deg":87.2052,"bstar":0.00034146,"rev_number":5891,"period_min":94.266508786325,"perigee_km":482.20587964982,"apogee_km":483.86902833747,"semimajor_km":6861.1744539936,"source":"CELESTRAK","updated_at":"2026-05-25T13:38:20.214421Z"}}}